Location: Biberach
(48.6101°N, 8.2770°E)
Time: 11:47:16
(UTC+00:00)

Daily predictions for brighter satellites

Satellite Brightness Start Highest point End
(mag) Time Altitude Azimuth Time Altitude Azimuth Time Altitude Azimuth
BREEZE-M DEB (TANK) 3.6 19:27:17 10° SSW 19:30:31 40° SE 19:39:52 10° ENE
SL-16 R/B 2.5 19:34:40 10° NNW 19:40:18 58° ENE 19:45:52 10° SE
Cosmos 1151 Rocket 4.3 19:37:09 10° NNE 19:40:49 25° ENE 19:44:28 10° SE
ATLAS 5 CENTAUR R/B 4.0 19:39:53 10° NNW 19:43:44 21° NNE 19:48:04 10° ENE
Terra 3.8 19:41:31 10° E 19:44:21 16° ENE 19:47:11 10° NNE
RESURS DK-1 3.6 19:41:18 10° SW 19:45:19 47° NW 19:49:22 10° NNE
Cosmos 332 Rocket 3.9 19:42:05 10° NNW 19:47:02 87° ENE 19:51:56 10° SSE
Meteor 2-3 Rocket 4.1 19:41:49 10° SSE 19:47:13 48° E 19:52:43 10° NNE
SPOT 3 Rocket 3.8 19:42:58 10° SSE 19:48:06 60° ENE 19:53:15 10° N
Cosmos 1933 3.4 19:48:06 10° N 19:52:08 62° ENE 19:56:07 10° SSE
Cosmos 1271 Rocket 3.0 19:49:27 10° N 19:53:23 55° ENE 19:57:19 10° SSE
Gbstr 26 Del rocket 3.0 19:50:51 10° WNW 19:54:30 56° SSW 19:58:12 11° SE
Cosmos 1538 Rocket 4.1 19:51:08 10° SSW 19:56:20 82° WNW 20:01:33 10° NNE
OBJECT-B 3.5 19:55:08 10° SW 19:57:31 19° W 19:59:56 10° NW
SPOT 5 4.0 19:57:34 10° ESE 20:01:09 25° ENE 20:04:48 10° N
IGS 5A 3.5 19:57:22 10° SSE 20:01:32 83° WSW 20:05:42 10° NNW
Cosmos 2098 Rocket 3.2 19:58:24 10° SSW 20:01:40 61° WNW 20:05:41 10° N
ARIANE 5 R/B 3.7 19:58:58 11° SE 20:02:47 31° ENE 20:06:42 10° N
Meteor 2-19 Rocket 4.4 19:57:04 10° S 20:03:04 74° E 20:09:08 10° NNE
Ariane Rocket 3.7 20:02:16 10° S 20:07:14 55° W 20:12:14 10° NNW
Cosmos 1782 3.0 20:04:07 10° N 20:08:04 55° ENE 20:11:44 12° SSE
Landsat 7 3.9 20:03:56 10° SSE 20:08:41 82° WSW 20:13:29 10° NNW
Cosmos 1624 Rocket 4.5 20:06:41 10° NNW 20:11:45 48° ENE 20:16:05 14° SE
Cosmos 304 Rocket 4.2 20:07:48 10° NNW 20:12:33 60° WSW 20:17:14 10° S
Cosmos 2082 Rocket 3.6 20:07:54 10° SW 20:13:15 43° NW 20:18:40 10° NNE
Cosmos 220 Rocket 4.2 20:10:42 10° NNW 20:15:01 60° ENE 20:18:36 15° SE
ATLAS 3B R/B 3.9 20:12:43 10° NW 20:19:10 38° WSW 20:25:51 10° S
Cosmos 2360 Rocket 2.5 20:13:49 10° NNW 20:19:22 54° ENE 20:23:55 15° SE
ATLAS 2AS CENTAUR R/B 4.2 20:14:50 10° WSW 20:22:22 46° NW 20:29:38 10° NE
MetOp-B 4.2 20:19:10 10° SSE 20:24:31 81° WSW 20:29:56 10° NNW
Cosmos 1174 4.4 20:21:52 10° NNW 20:24:37 30° NE 20:26:29 16° E
Cosmos 1092 Rocket 4.1 20:20:35 10° S 20:26:52 88° W 20:33:15 10° N
ISS -1.2 20:28:49 10° WSW 20:30:07 12° SW 20:31:24 10° SSW
Cosmos 2151 3.9 20:27:38 10° SSW 20:31:46 50° WNW 20:35:58 10° N
NOSS 2-1 (C) 3.2 20:28:42 10° SSW 20:31:49 40° SE 20:34:58 10° NE
ERS-2 3.5 20:30:20 10° N 20:33:47 40° WNW 20:37:12 10° SW
Cosmos 2026 Rocket 4.0 20:29:32 10° S 20:35:52 88° E 20:42:09 10° N
Cosmos 2084 3.3 20:33:21 10° SSW 20:37:21 62° SE 20:41:30 10° NE
COSMOS 2455 3.9 20:34:51 17° SSE 20:37:58 25° ESE 20:42:44 10° NE
Cosmos 1812 2.8 20:34:19 10° N 20:38:10 59° ENE 20:40:30 22° SSE
NOSS 2-1 (D) 3.0 20:36:21 10° SSW 20:39:33 49° SE 20:42:48 10° NE
GP-B 3.1 20:35:24 10° N 20:39:52 90° NE 20:44:01 12° S
Cosmos 2333 Rocket 2.9 20:35:04 10° NNW 20:40:25 42° NE 20:44:24 17° ESE
Cosmos 923 Rocket 4.3 20:37:09 10° SSW 20:42:30 76° WNW 20:47:52 10° NNE
BREEZE-M DEB (TANK) 4.5 20:39:16 10° W 20:42:52 43° SSW 20:49:45 17° SE
SPOT 1/Viking Rocket 3.9 20:38:27 10° S 20:43:32 63° WSW 20:48:44 10° NNW
ERS-1 Rocket 3.1 20:40:25 19° SSE 20:44:00 65° ENE 20:49:00 10° N
USA 245 3.8 20:42:07 13° S 20:46:16 66° WSW 20:50:06 10° NNW
SL-27 R/B 2.7 20:44:41 20° S 20:46:53 48° ESE 20:50:23 10° NNE
Cosmos 2322 4.4 20:42:10 10° NNW 20:47:40 45° NE 20:51:30 19° ESE
USA 276 4.2 20:50:29 10° WSW 20:52:25 15° SW 20:53:10 14° SSW
Okean 3 Rocket 3.6 20:48:05 10° S 20:52:30 89° W 20:57:04 10° N
Cosmos 2056 Rocket 3.5 20:47:19 10° NNW 20:52:42 84° WSW 20:56:16 21° SSE
Cosmos 2237 Rocket 4.2 20:48:45 10° N 20:52:43 19° NE 20:56:42 10° E
Cosmos 1408 Rocket 3.8 20:50:55 23° SSE 20:53:24 50° E 20:57:36 10° NNE
Cosmos 2322 Rocket 2.6 20:48:11 10° NW 20:53:41 56° WSW 20:57:55 17° S
Meteor 2-14 Rocket 4.4 20:48:51 12° S 20:54:37 71° E 21:00:45 10° NNE
CARTOSAT-1 4.0 20:59:31 18° S 21:02:36 59° W 21:06:53 10° NNW
Meteor 1-10 Rocket 4.2 20:58:17 10° N 21:03:52 75° ENE 21:07:16 24° SSE
USA 234 4.2 20:58:20 10° E 21:04:32 47° NNE 21:10:45 10° WNW
Spot 2 Rocket 3.9 21:03:05 17° S 21:06:59 59° WSW 21:12:03 10° NNW
Cosmos 2219 Rocket 2.5 21:05:49 10° NNW 21:11:21 56° ENE 21:14:26 25° SE
Resurs 01 Rocket 4.0 21:11:08 10° SW 21:14:10 18° W 21:17:14 10° NW
BREEZE M DEB (TANK) 4.3 21:11:39 10° SW 21:15:54 56° SSE 21:42:34 10° E
Cosmos 1680 Rocket 4.3 21:11:24 10° SW 21:16:33 53° WNW 21:21:42 10° NNE
Cosmos 1151 Rocket 4.4 21:14:27 10° NNW 21:18:27 35° W 21:21:47 14° SSW
Cosmos 1515 Rocket 3.6 21:14:01 10° NNW 21:18:29 82° W 21:20:36 30° S
Terra 1.8 21:19:00 29° S 21:21:29 82° WSW 21:26:16 10° NNW
Cosmos 1553 Rocket 4.3 21:15:50 10° NNW 21:21:49 61° W 21:26:23 18° SSW
Cosmos 2285 Rocket 4.2 21:16:38 10° NNW 21:22:53 61° ENE 21:26:17 28° SE
Cosmos 2266 Rocket 4.0 21:19:57 24° S 21:23:44 67° E 21:29:57 10° NNE
SL-16 R/B 3.8 21:19:24 10° NW 21:24:01 26° WSW 21:28:19 11° SSW
Cosmos 2315 Rocket 4.2 21:21:26 10° N 21:27:43 60° ENE 21:30:56 29° SE
ATLAS 5 CENTAUR R/B 2.6 21:24:02 10° NW 21:29:21 58° NE 21:33:06 24° ESE
Cosmos 2333 4.2 21:24:58 10° NNW 21:30:36 81° WSW 21:33:17 32° SSE
Cosmos 2228 Rocket 3.2 21:29:32 10° N 21:33:56 61° ENE 21:35:16 41° SE
NOSS 2-1 (E) 3.8 21:34:37 10° WSW 21:37:47 48° NW 21:41:14 10° NNE
COSMOS 2428 2.8 21:33:15 10° NNW 21:38:58 72° ENE 21:41:31 34° SE
SPOT 5 3.7 21:36:48 22° SSW 21:39:05 38° W 21:43:14 10° NNW
ARIANE 5 R/B 4.0 21:36:32 18° SSW 21:39:12 32° W 21:43:12 10° NNW
Cosmos 883 Rocket 4.5 21:36:19 10° N 21:42:35 88° E 21:45:47 32° S
NOSS 3-1 (C) 4.2 21:37:14 10° NW 21:44:39 70° SW 21:49:23 29° SSE
Cosmos 1707 Rocket 4.4 21:40:55 10° N 21:45:00 37° ENE 21:45:57 33° ESE
Cosmos 292 Rocket 4.5 21:40:41 10° NW 21:45:15 45° WSW 21:47:10 29° SSW
IRIDIUM 106 4.3 21:41:18 10° N 21:46:32 74° E 21:48:29 39° SSE
Cosmos 1048 Rocket 4.0 21:48:39 40° SSE 21:50:11 57° ESE 21:55:13 10° NNE
Cosmos 1655 Rocket 4.4 21:54:13 19° SSW 21:58:52 65° WNW 22:05:16 10° N
COSMOS 2487 2.3 22:00:10 72° WSW 22:00:22 75° WNW 22:03:46 10° NNE
ALOS 2 3.8 21:59:23 27° E 22:00:28 31° ENE 22:04:20 10° N
USA 229 DEB 3.9 21:53:19 10° NW 22:00:38 82° SW 22:04:27 33° SSE
USA 229 3.9 21:53:24 10° NW 22:00:44 82° SW 22:04:33 33° SSE
Cosmos 972 Rocket 3.9 21:59:17 32° SSW 22:01:47 89° WNW 22:06:46 10° NNE
Cosmos 2360 Rocket 3.6 21:58:21 10° NW 22:03:03 28° WSW 22:05:41 20° SW
Cosmos 1805 Rocket 3.5 22:02:11 52° S 22:03:13 83° E 22:07:40 10° N
Cosmos 2084 Rocket 3.8 22:04:04 10° NW 22:08:12 58° NE 22:09:18 43° E
CZ-4C R/B 4.3 22:04:01 10° NW 22:09:57 32° NNE 22:16:51 10° E
USA 267 3.4 22:05:54 10° ENE 22:12:13 49° SE 22:14:48 33° S
Cosmos 1500 Rocket 4.5 22:11:54 27° SW 22:13:54 45° WNW 22:18:12 10° N
Cosmos 1980 4.0 22:09:44 10° NNW 22:15:20 57° ENE 22:17:31 35° ESE
NOSS 0 Rocket 3.9 22:10:14 10° NNW 22:16:31 82° ENE 22:18:53 41° SE
NOSS 3-1 (A) 4.1 22:13:42 10° NW 22:21:08 68° SW 22:25:00 35° SSE
COSMOS 2455 3.1 22:17:52 12° SW 22:23:23 69° NW 22:29:26 10° NNE
Cosmos 2333 Rocket 3.1 22:19:29 10° NW 22:24:40 38° WSW 22:26:23 31° SW
Lacrosse 5 2.7 22:25:50 33° ESE 22:25:50 33° ESE 22:29:23 10° ENE
Cosmos 1452 Rocket 4.3 22:19:52 10° NW 22:24:47 41° WSW 22:26:16 33° SW
Meteor 1-20 Rocket 4.2 22:23:03 41° SSW 22:25:06 87° W 22:30:52 10° N
Nadezhda 2 Rocket 4.5 22:23:24 40° S 22:25:52 80° E 22:32:19 10° N
COBE Rocket 3.8 22:26:51 54° SSW 22:27:47 71° W 22:32:31 10° NNW
Cosmos 972 4.5 22:28:20 46° SSW 22:30:02 85° ESE 22:35:11 10° NNE
BREEZE-M R/B 2.9 22:27:35 10° WSW 22:31:56 48° E 22:35:37 10° ENE
Cosmos 2297 Rocket 2.8 22:32:07 38° ESE 22:32:36 38° ESE 22:37:48 10° NE
Cosmos 1500 3.4 22:34:31 60° ENE 22:34:31 60° ENE 22:38:02 10° NNE
Sich 1 3.3 22:34:10 48° SW 22:35:03 60° WNW 22:39:21 10° N
Cosmos 1244 Rocket 4.4 22:34:47 43° S 22:37:00 89° E 22:43:16 10° N
Cosmos 2237 Rocket 2.2 22:32:04 10° NNW 22:37:46 77° ENE 22:39:29 46° SE
Cosmos 1470 Rocket 4.0 22:43:07 47° E 22:43:07 47° E 22:47:14 10° NNE
BREEZE-M DEB (TANK) 4.1 22:40:52 10° W 22:42:20 18° W 22:42:20 18° W
Cosmos 1633 Rocket 2.8 22:44:04 77° SSE 22:44:20 83° E 22:48:43 10° N
Cosmos 2227 Rocket 2.9 22:44:30 36° ESE 22:44:52 36° ESE 22:49:59 10° NE
Cosmos 1110 Rocket 4.4 22:42:00 10° NNW 22:47:09 50° WSW 22:48:10 44° SW
USA 234 3.3 22:42:59 24° ESE 22:47:11 82° NNE 22:53:46 10° NW
Cosmos 1933 Rocket 4.4 22:49:28 37° E 22:49:29 37° E 22:53:36 10° NNE
Cosmos 1331 Rocket 4.3 22:44:33 10° NNW 22:49:38 52° WSW 22:50:32 46° SW
APEX 4.3 22:48:05 41° SSW 22:50:21 89° WNW 22:57:08 10° NNE
Cosmos 1666 Rocket 3.6 22:50:45 62° SW 22:51:19 70° WNW 22:55:47 10° N
Cosmos 2242 Rocket 4.5 22:49:06 10° N 22:53:14 37° ENE 22:53:45 36° E
Cosmos 1340 Rocket 3.9 22:54:24 34° ENE 22:54:24 34° ENE 22:57:29 10° NNE
Cosmos 2219 Rocket 3.4 22:50:21 10° NW 22:54:57 27° WSW 22:56:08 25° SW
Cosmos 1378 4.3 22:52:40 10° N 22:55:52 33° ENE 22:55:52 33° ENE
NOSS 2-2 (E) 4.4 22:53:11 10° NW 22:58:32 78° SW 23:00:50 44° SSE
Terra 4.3 22:58:45 10° W 23:00:00 11° W 23:01:15 10° WNW
Spot 4 4.5 23:03:05 40° WSW 23:03:46 42° W 23:08:23 10° NNW
SL-16 R/B 2.8 23:01:45 10° NNW 23:07:17 51° NE 23:09:38 32° ESE
ATLAS 5 CENTAUR R/B 3.1 23:08:49 10° NW 23:13:58 35° WSW 23:14:35 35° SW
Cosmos 1862 Rocket 3.9 23:09:46 10° NNW 23:13:59 49° W 23:14:06 49° W
STPSAT 2 (USA 217) 4.4 23:09:54 10° NNW 23:14:30 89° ENE 23:14:46 80° SSE
Okean 3 4.5 23:11:38 10° N 23:15:36 36° ENE 23:16:01 35° E
COSMOS 2428 4.3 23:18:33 10° NW 23:22:38 21° W 23:23:31 20° WSW
NOSS 2-2 (C) 4.4 23:18:14 10° NW 23:23:31 66° SW 23:25:11 49° S
Meteor 2-4 Rocket 4.0 23:17:46 10° NNW 23:23:37 61° W 23:24:59 48° SSW
Intercosmos 25 Rocket 4.2 23:24:02 45° ESE 23:24:23 46° E 23:29:58 10° NNE
Cosmos 1743 4.4 23:25:44 23° E 23:25:44 23° E 23:28:25 10° NE
Cosmos 1666 3.0 23:26:25 60° NW 23:26:25 60° NW 23:29:58 10° N
Meteor 1-11 Rocket 4.0 23:25:58 47° SE 23:26:57 53° E 23:32:19 10° NNE
Cosmos 1703 Rocket 3.4 23:25:08 10° N 23:29:32 85° E 23:29:38 84° ESE
Cosmos 1709 Rocket 4.0 23:30:39 49° SSE 23:32:26 74° E 23:38:50 10° NNE
PSLV R/B 3.9 23:29:05 10° NNE 23:33:48 58° E 23:34:07 56° ESE
Cosmos 1992 Rocket 3.9 23:30:32 10° NNW 23:35:48 89° ENE 23:36:41 63° SSE
ALOS 2 3.7 23:36:46 32° W 23:36:46 32° W 23:40:43 10° NNW
Meteor 1-5 Rocket 4.4 23:35:45 48° SW 23:37:20 69° WNW 23:43:16 10° N
Cosmos 909 Rocket 4.2 23:36:15 46° SSW 23:38:24 73° ESE 23:46:13 10° NE
Cosmos 1745 Rocket 4.2 23:39:16 41° SW 23:41:20 62° WNW 23:47:37 10° N
CZ-2D R/B 4.2 23:40:27 10° NE 23:43:39 16° E 23:45:32 13° ESE
Cosmos 2219 3.2 23:42:23 49° SW 23:43:59 80° WNW 23:49:48 10° NNE
Cosmos 1066 Rocket 4.2 23:41:20 10° NNW 23:47:15 90° ENE 23:48:43 54° S
Meteor 1-13 Rocket 4.2 23:45:29 10° NNW 23:51:15 73° W 23:52:26 55° SSW
Timation 1 Rocket 4.2 23:51:21 51° SSW 23:52:58 88° ESE 23:59:00 10° NNE
Meteor 1-23 Rocket 4.3 23:48:16 10° N 23:54:00 71° ENE 23:55:43 46° SE
